Total_Precipitation_Accumulation
0.19 0.27 0.61 0.86 0.92 0.93 0.93 0.95 0.91 0.85 0.82 0.84 0.91 1.01 1.03 1.06 1.08 1.03 1.08 1.12 1.23 1.41 1.55 1.63 1.72 1.77 1.62 1.36 1.17 1.02 0.94 0.89 0.86 0.90 0.98 1.08 1.08 0.96 0.83 0.71 0.56 0.66 0.97
0.18 0.26 0.57 0.76 0.89 0.92 0.96 0.98 0.94 0.87 0.84 0.88 0.91 0.99 1.04 1.03 1.10 1.15 1.20 1.27 1.39 1.51 1.51 1.58 1.64 1.61 1.47 1.28 1.12 0.94 0.86 0.78 0.64 0.57 0.59 0.69 0.89 0.93 0.82 0.74 0.68 0.89 1.03
0.21 0.26 0.48 0.70 0.87 0.92 0.98 0.97 0.92 0.90 0.93 0.99 1.01 1.03 1.09 1.09 1.11 1.21 1.32 1.39 1.43 1.50 1.54 1.55 1.50 1.51 1.38 1.26 1.15 1.00 0.83 0.75 0.59 0.46 0.42 0.45 0.68 0.92 0.90 0.83 0.83 1.01 1.06
0.25 0.27 0.40 0.65 0.88 0.99 1.03 1.03 0.98 0.98 1.04 1.13 1.15 1.14 1.17 1.21 1.22 1.29 1.35 1.42 1.39 1.39 1.49 1.48 1.47 1.46 1.36 1.28 1.15 0.98 0.82 0.69 0.55 0.41 0.33 0.41 0.66 1.04 1.04 0.94 0.89 0.99 1.05
0.21 0.26 0.41 0.68 0.93 1.12 1.15 1.16 1.12 1.09 1.12 1.21 1.27 1.30 1.29 1.33 1.31 1.35 1.34 1.31 1.30 1.27 1.29 1.28 1.38 1.40 1.34 1.22 1.15 1.04 0.89 0.69 0.52 0.38 0.34 0.47 0.73 1.09 1.06 1.00 0.97 0.98 1.00
0.21 0.28 0.44 0.72 0.99 1.13 1.16 1.13 1.17 1.20 1.23 1.30 1.36 1.42 1.46 1.51 1.46 1.42 1.33 1.29 1.22 1.20 1.23 1.25 1.29 1.33 1.28 1.18 1.10 1.11 1.10 0.90 0.59 0.42 0.36 0.43 0.60 0.93 1.04 1.10 1.12 1.03 0.99
0.27 0.36 0.50 0.80 1.08 1.18 1.24 1.24 1.25 1.36 1.44 1.44 1.44 1.53 1.62 1.67 1.61 1.46 1.35 1.31 1.30 1.28 1.29 1.32 1.34 1.35 1.25 1.14 1.09 1.06 1.05 0.86 0.59 0.48 0.37 0.37 0.51 0.84 1.16 1.28 1.32 1.18 1.09
0.30 0.43 0.60 0.96 1.15 1.24 1.32 1.34 1.35 1.46 1.60 1.65 1.67 1.76 1.78 1.74 1.67 1.60 1.45 1.36 1.40 1.40 1.37 1.36 1.40 1.42 1.32 1.20 1.08 1.01 0.93 0.70 0.57 0.59 0.52 0.49 0.62 0.96 1.24 1.42 1.40 1.26 1.20
0.45 0.59 0.71 0.96 1.14 1.32 1.48 1.53 1.51 1.59 1.66 1.71 1.86 1.90 1.85 1.81 1.77 1.73 1.59 1.46 1.49 1.49 1.52 1.44 1.36 1.26 1.20 1.21 1.20 1.07 0.89 0.69 0.58 0.71 0.67 0.77 0.75 1.05 1.25 1.41 1.48 1.40 1.30
0.63 0.75 0.89 1.03 1.19 1.35 1.53 1.65 1.71 1.75 1.79 1.86 1.92 1.89 1.87 1.93 1.94 1.86 1.65 1.56 1.55 1.54 1.56 1.53 1.41 1.24 1.12 1.14 1.21 1.11 0.89 0.74 0.61 0.68 0.89 0.85 0.83 1.21 1.42 1.46 1.52 1.46 1.40
0.84 0.93 1.11 1.21 1.29 1.45 1.59 1.65 1.91 2.05 2.09 2.10 2.10 2.03 2.07 2.05 1.98 1.86 1.65 1.57 1.53 1.58 1.56 1.60 1.54 1.39 1.23 1.14 1.18 1.12 0.90 0.76 0.66 0.70 0.77 0.77 0.93 1.30 1.62 1.69 1.66 1.55 1.45
0.81 1.00 1.19 1.41 1.51 1.66 1.71 1.84 2.04 2.16 2.27 2.27 2.00 2.00 2.08 1.97 1.94 1.87 1.86 1.86 1.70 1.68 1.70 1.62 1.55 1.49 1.34 1.13 1.09 1.06 0.84 0.73 0.78 0.68 0.69 0.76 0.95 1.31 1.60 1.76 1.83 1.78 1.65
0.84 1.00 1.23 1.52 1.76 1.88 1.85 1.83 1.96 2.14 2.24 2.30 2.04 1.89 1.94 2.01 2.03 2.03 1.90 1.95 1.90 1.81 1.83 1.69 1.61 1.45 1.28 1.18 1.13 1.00 0.79 0.71 0.70 0.66 0.71 0.87 0.99 1.24 1.53 1.70 1.83 1.93 1.90
0.97 1.07 1.29 1.57 1.88 2.00 2.06 1.95 1.94 2.06 2.12 2.18 2.12 2.04 1.98 2.01 1.98 1.87 1.79 1.68 1.67 1.60 1.59 1.59 1.51 1.38 1.26 1.15 1.12 1.06 0.93 0.80 0.67 0.66 0.68 0.85 1.00 1.06 1.26 1.48 1.66 1.86 1.99
1.00 1.14 1.39 1.61 1.87 2.14 2.27 2.22 2.13 2.18 2.02 2.10 2.24 2.30 2.15 2.01 1.97 1.94 1.81 1.73 1.64 1.55 1.50 1.48 1.40 1.33 1.25 1.15 1.10 1.09 1.01 0.85 0.74 0.68 0.64 0.80 1.00 0.96 1.07 1.30 1.55 1.87 2.17
0.96 1.15 1.46 1.70 1.87 2.18 2.33 2.29 2.26 2.34 2.26 2.26 2.28 2.27 2.31 2.27 2.11 2.06 1.95 1.80 1.71 1.63 1.52 1.49 1.43 1.39 1.33 1.21 1.09 0.99 1.01 0.99 0.87 0.83 0.75 0.76 0.91 0.90 0.92 1.14 1.41 1.72 2.16
0.96 1.16 1.48 1.73 1.96 2.17 2.26 2.31 2.34 2.37 2.42 2.37 2.31 2.33 2.39 2.34 2.29 2.20 2.08 1.96 1.79 1.75 1.73 1.66 1.62 1.52 1.46 1.34 1.24 1.10 1.00 1.00 0.94 0.90 0.87 0.84 0.83 0.80 0.83 0.98 1.20 1.52 1.89
1.08 1.17 1.38 1.68 1.90 2.11 2.23 2.28 2.28 2.38 2.42 2.46 2.47 2.42 2.42 2.48 2.49 2.48 2.25 2.09 1.87 1.82 1.84 1.82 1.73 1.66 1.53 1.41 1.33 1.20 1.06 1.00 0.97 0.94 0.93 0.91 0.88 0.79 0.78 0.84 0.94 1.21 1.58
1.17 1.25 1.43 1.63 1.79 1.96 2.23 2.38 2.31 2.34 2.46 2.53 2.54 2.57 2.45 2.48 2.55 2.64 2.58 2.35 2.16 2.06 1.92 1.84 1.75 1.65 1.57 1.48 1.41 1.32 1.18 1.07 1.01 1.00 0.94 0.88 0.84 0.82 0.80 0.83 0.90 1.00 1.27
1.29 1.36 1.48 1.64 1.81 1.96 2.31 2.52 2.60 2.52 2.55 2.58 2.50 2.46 2.47 2.46 2.45 2.50 2.59 2.57 2.46 2.37 2.21 2.03 1.91 1.73 1.60 1.54 1.54 1.52 1.35 1.20 1.12 1.07 1.03 0.94 0.84 0.78 0.81 0.83 0.88 0.94 1.08
1.34 1.38 1.53 1.60 1.76 1.97 2.20 2.39 2.43 2.49 2.45 2.44 2.39 2.39 2.39 2.41 2.40 2.39 2.33 2.41 2.43 2.36 2.25 2.14 2.05 1.99 1.84 1.68 1.76 1.82 1.68 1.39 1.20 1.08 1.04 1.02 0.92 0.82 0.79 0.81 0.86 0.90 0.97
1.40 1.40 1.53 1.66 1.76 1.80 1.92 2.11 2.22 2.38 2.46 2.44 2.35 2.38 2.34 2.31 2.29 2.38 2.38 2.27 2.24 2.23 2.21 2.13 2.05 1.99 1.95 1.81 1.80 1.91 1.91 1.79 1.43 1.09 0.99 0.97 0.96 0.94 0.88 0.82 0.82 0.89 0.95
1.49 1.50 1.53 1.62 1.78 1.85 1.97 2.20 2.34 2.58 2.68 2.72 2.52 2.37 2.32 2.32 2.22 2.18 2.32 2.33 2.22 2.17 2.13 2.08 1.99 1.90 1.88 1.75 1.59 1.80 1.89 1.64 1.32 1.11 0.98 0.89 0.87 0.95 0.94 0.89 0.86 0.83 0.92
1.36 1.50 1.57 1.69 1.81 1.84 2.03 2.23 2.26 2.42 2.48 2.42 2.31 2.25 2.20 2.26 2.27 2.18 2.17 2.25 2.27 2.15 2.02 2.00 2.02 1.95 1.96 1.95 1.74 1.52 1.49 1.39 1.38 1.21 1.04 0.98 0.92 0.90 0.94 0.94 0.93 0.88 0.88
1.16 1.37 1.53 1.72 1.88 1.90 1.95 2.14 2.21 2.18 2.26 2.37 2.42 2.38 2.31 2.28 2.26 2.21 2.20 2.21 2.20 2.15 2.01 1.93 1.96 2.02 2.04 2.02 1.93 1.69 1.50 1.28 1.20 1.29 1.10 0.99 1.07 1.02 0.96 0.98 1.00 0.99 0.94
1.10 1.27 1.44 1.64 1.79 1.89 1.89 2.00 2.18 2.16 2.15 2.28 2.46 2.51 2.44 2.36 2.30 2.20 2.12 2.16 2.12 2.01 1.95 1.89 1.88 1.87 1.90 1.92 1.87 1.77 1.68 1.57 1.34 1.30 1.22 1.00 0.99 1.01 1.03 1.04 1.09 1.07 1.03